Biloxi, MS

9:22 PM CDT on September 26, 2016 (GMT -0500)
Keesler Air Force Base

Weather History for KBIX - March, 2011

Change the Weather History Date:

Wednesday, March 23, 2011

  Actual Average Record
Temperature  
Mean Temperature 74 °F -  
Max Temperature 81 °F 69 °F 81 °F (2011)
Min Temperature 69 °F 49 °F 31 °F (1968)
Cooling Degree Days 10    
Growing Degree Days 24 (Base 50)    
Moisture  
Dew Point 69 °F    
Average Humidity 86    
Maximum Humidity 100    
Minimum Humidity 54    
Precipitation  
Precipitation 0.00 in - - ()
Sea Level Pressure  
Sea Level Pressure 29.95 in    
Wind  
Wind Speed 13 mph (WSW)    
Max Wind Speed 20 mph    
Max Gust Speed 28 mph    
Visibility 10 miles    
Events      
Averages and records for this station are not official NWS values.
T = Trace of Precipitation, MM = Missing Value Source: NWS Daily Summary

Daily Weather History Graph

Daily Weather History Graph

Search for Another Location

Airport or City:

Trip Planner

Search our weather history database for the weather conditions in past years. The results will help you decide how hot, cold, wet, or windy it might be!

Date:

Astronomy

Mar. 23, 2011 Rise Set
Actual Time 6:56 AM CDT 7:08 PM CDT
Civil Twilight 6:32 AM CDT 7:32 PM CDT
Nautical Twilight 6:04 AM CDT 8:00 PM CDT
Astronomical Twilight 5:35 AM CDT 8:29 PM CDT
Moon 11:58 PM CDT (3/23) 9:29 AM CDT (3/23)
Length of Visible Light 13h 00m
Length of Day
12h 12m
Waning Gibbous, 79% of the Moon is Illuminated
Mar 23
Waning Gibbous
Mar 26
Last Quarter
Apr 3
New
Apr 11
First Quarter
Apr 17
Full

Hourly Weather History & Observations

Time (CDT) Temp. Heat Index Dew Point Humidity Pressure Visibility Wind Dir Wind Speed Gust Speed Precip Events Conditions
12:55 AM 70.3 °F - 69.6 °F 98% 29.98 in 10.0 mi SSW 12.7 mph - N/A   Clear
1:55 AM 70.2 °F - 69.6 °F 98% 29.98 in 10.0 mi SW 11.5 mph - N/A   Clear
2:55 AM 69.8 °F - 69.3 °F 98% 29.96 in 10.0 mi SW 15.0 mph - N/A   Clear
3:55 AM 70.5 °F - 69.4 °F 96% 29.95 in 10.0 mi SW 12.7 mph - N/A   Scattered Clouds
4:15 AM 69.8 °F - 69.8 °F 100% 29.95 in 10.0 mi SW 17.3 mph - N/A   Mostly Cloudy
4:55 AM 70.2 °F - 69.1 °F 96% 29.94 in 10.0 mi SW 15.0 mph - N/A   Mostly Cloudy
5:55 AM 69.8 °F - 68.9 °F 97% 29.96 in 10.0 mi WSW 10.4 mph - N/A   Partly Cloudy
6:24 AM 69.8 °F - 69.8 °F 100% 29.96 in 10.0 mi WSW 6.9 mph - N/A   Mostly Cloudy
6:34 AM 69.8 °F - 69.8 °F 100% 29.96 in 10.0 mi WSW 8.1 mph - N/A   Mostly Cloudy
6:55 AM 70.2 °F - 68.7 °F 95% 29.96 in 10.0 mi WSW 12.7 mph - N/A   Mostly Cloudy
7:23 AM 69.8 °F - 69.8 °F 100% 29.96 in 10.0 mi WSW 10.4 mph - N/A   Scattered Clouds
7:24 AM 69.8 °F - 69.8 °F 100% 29.96 in 10.0 mi WSW 9.2 mph - N/A   Mostly Cloudy
7:50 AM 71.6 °F - 69.8 °F 94% 29.96 in 10.0 mi SW 12.7 mph - N/A   Mostly Cloudy
7:55 AM 71.1 °F - 69.6 °F 95% 29.96 in 10.0 mi WSW 12.7 mph - N/A   Overcast
8:10 AM 71.6 °F - 69.8 °F 94% 29.96 in 10.0 mi SW 12.7 mph - N/A   Mostly Cloudy
8:17 AM 71.6 °F - 69.8 °F 94% 29.96 in 10.0 mi SW 13.8 mph - N/A   Scattered Clouds
8:23 AM 71.6 °F - 69.8 °F 94% 29.96 in 10.0 mi SW 12.7 mph 21.9 mph N/A   Mostly Cloudy
8:30 AM 73.4 °F - 69.8 °F 88% 29.96 in 10.0 mi SW 16.1 mph - N/A   Scattered Clouds
8:33 AM 73.4 °F - 69.8 °F 88% 29.96 in 10.0 mi SW 15.0 mph - N/A   Mostly Cloudy
8:37 AM 73.4 °F - 69.8 °F 88% 29.96 in 10.0 mi SW 16.1 mph 23.0 mph N/A   Scattered Clouds
8:52 AM 73.4 °F - 69.8 °F 88% 29.96 in 10.0 mi SW 13.8 mph 21.9 mph N/A   Mostly Cloudy
8:55 AM 74.5 °F - 69.6 °F 85% 29.96 in 10.0 mi WSW 11.5 mph - N/A   Mostly Cloudy
9:08 AM 73.4 °F - 69.8 °F 88% 29.96 in 10.0 mi WSW 12.7 mph - N/A   Mostly Cloudy
9:19 AM 73.4 °F - 69.8 °F 88% 29.96 in 10.0 mi WSW 12.7 mph 21.9 mph N/A   Mostly Cloudy
9:26 AM 73.4 °F - 69.8 °F 88% 29.96 in 10.0 mi WSW 15.0 mph - N/A   Scattered Clouds
9:29 AM 73.4 °F - 69.8 °F 88% 29.97 in 10.0 mi WSW 11.5 mph - N/A   Mostly Cloudy
9:30 AM 73.4 °F - 69.8 °F 88% 29.97 in 10.0 mi WSW 12.7 mph - N/A   Scattered Clouds
9:35 AM 73.4 °F - 69.8 °F 88% 29.97 in 10.0 mi WSW 16.1 mph - N/A   Mostly Cloudy
9:42 AM 73.4 °F - 69.8 °F 88% 29.97 in 10.0 mi WSW 11.5 mph - N/A   Scattered Clouds
9:55 AM 74.1 °F - 69.1 °F 84% 29.98 in 10.0 mi WSW 12.7 mph - N/A   Partly Cloudy
10:55 AM 77.2 °F - 68.7 °F 75% 29.99 in 10.0 mi WSW 15.0 mph 19.6 mph N/A   Clear
11:55 AM 77.5 °F - 68.2 °F 73% 29.98 in 10.0 mi WSW 17.3 mph 20.7 mph N/A   Partly Cloudy
12:55 PM 79.3 °F - 67.1 °F 66% 29.96 in 10.0 mi WSW 11.5 mph 21.9 mph N/A   Partly Cloudy
1:55 PM 80.1 °F 81.7 °F 64.0 °F 58% 29.94 in 10.0 mi WSW 19.6 mph 27.6 mph N/A   Partly Cloudy
2:55 PM 80.8 °F 82.0 °F 63.0 °F 54% 29.91 in 10.0 mi WSW 18.4 mph 25.3 mph N/A   Clear
3:55 PM 80.6 °F 82.2 °F 63.9 °F 57% 29.89 in 10.0 mi SW 16.1 mph 25.3 mph N/A   Clear
4:55 PM 79.2 °F - 64.6 °F 61% 29.87 in 10.0 mi SW 19.6 mph - N/A   Clear
5:55 PM 77.5 °F - 66.0 °F 68% 29.87 in 10.0 mi WSW 17.3 mph - N/A   Clear
6:55 PM 74.8 °F - 67.3 °F 77% 29.87 in 10.0 mi WSW 16.1 mph 21.9 mph N/A   Clear
7:55 PM 74.1 °F - 66.9 °F 78% 29.88 in 10.0 mi WSW 16.1 mph 24.2 mph N/A   Clear
8:55 PM 73.0 °F - 67.6 °F 83% 29.89 in 10.0 mi WSW 12.7 mph 19.6 mph N/A   Clear
9:55 PM 72.5 °F - 67.6 °F 85% 29.90 in 10.0 mi WSW 13.8 mph - N/A   Clear
10:55 PM 71.8 °F - 67.8 °F 87% 29.90 in 10.0 mi WSW 11.5 mph - N/A   Clear
11:55 PM 71.1 °F - 66.0 °F 84% 29.91 in 10.0 mi WSW 11.5 mph - N/A   Clear